Starlink 31493

operational
NORAD ID: 59329 Int'l Des: 2024-057 Owner: SPXS Country: US Constellation: starlink
LEOCIRCULAR

关于 Starlink 31493

正在加载描述...

实时位置

正在加载3D地球...

即将过境

高度历史

Altitude vs Time

uPlot chart will show altitude changes over time

两行轨道根数

1 59329U 24057K 25305.94550876 .00001880 00000-0 77853-4 0 9996
2 59329 43.0051 188.3919 0002156 276.6548 83.4058 15.27578288 90307
Epoch: Nov 1, 2025 • Age: 38 hours

当前状态

高度 484.9 km
速度 7.63 km/s
星下点 32.48°N, 9.5°W
发射日期 Mar 25, 2024
运行时间 1.6 years
类型 internet

技术详情

分类 Payload
质量 730.00 kg
干质量 700.00 kg
总质量 730.00 kg
长度 0.30 m
直径 4.10 m
跨度 29.00 m
形状 Box + pan
制造商 SPXS
平台类型 Starlink V2M
阶段状态 In Orbit
所有者/国家 SPXS/US

大型星座

Loading constellations...